IRIDIUM 33 DEB, 35744

Orbit data source: Space-Track

IRIDIUM 33 DEB, 35744 is space debris in LEO originally from a launch on Sun, 14 Sep 1997 UTC launched from the Tyuratam Missile And Space Complex (TTMTR). The debris from Iridium 33, an American commercial communications satellite, has been tracked extensively since its accidental collision with the defunct Russian satellite Cosmos 2251 in 2009. This event, occurring at high speed in low Earth orbit (LEO), generated thousands of pieces of space debris, significantly increasing the risk of further collisions. The Iridium 33 debris cloud has impacted space traffic management and orbital debris mitigation strategies, making it a subject of ongoing study in space situational awareness.

Loading next visibility...
Identifier
35744, 1997-051RX
Orbit
LEO
Country
Flag of USUS
Related business
Manufacturer
Unknown
Mission
Spacecraft
Bus & Motor
Unknown
Mass
Unknown
Launch date (UTC)
1997-09-14 (28 years ago)
Launch vehicle
Unknown
Launch site
Tyuratam Missile And Space Complex (TTMTR)
Object type
Payload
Rocket body
Debris
Shape & HBR
Unknown shape, 0.1 m
Radar Cross Section
Small (<0.1 m²)

Expand to show TLE details & history
Last TLE update: 18 hours ago

TLE from 18 hours ago
0 IRIDIUM 33 DEB
1 35744U 97051RX  25307.81209156  .00006502  00000-0  10723-2 0  9992
2 35744  86.3312 343.0163 0020324 339.5960  20.4442 14.70206458867592
Epoch: 2025-11-03T19:29Z
TLE epoch observation values (Epoch: 2025-11-03T19:29:24.710Z)
Latitude
0.00003°
Longitude
7.35524°
Altitude
650.106 km
Speed
7.54 km/s
True Right ascension
22h 52m 03s
True Declination
0° 00' 00"
Sunlit
Object was in full shadow at epoch
Visualization orbit readout
Latitude
Unknown
Longitude
Unknown
Altitude
Unknown
Speed
Unknown
Apparent Right ascension
Unknown
Apparent Declination
Unknown
Sunlit
N/A
Visualization observer readout
Local Sidereal Time
09:39:00
Azimuth
Unknown
Elevation
Unknown
Doppler factor
Unknown
Orbital elements
Apogee altitude
671.623 km
Perigee altitude
643.025 km
Semi-major axis
7,035.461 km
Eccentricity
0.00203
Inclination
86.3312°
RAAN
343.0163°
Arg. of periapsis
339.596°
True anomaly
20.52574°
Mean anomaly
20.4442°
Eccentric anomaly
20.48495°
Mean motion
3.67794 °/min
Orbital period
97.88 mins
BSTAR
0.0010723
Loading maneuver chart data...
Computing Atmospheric mass density...
Loading historical data...
Loading historical data...
Loading historical data...
Loading historical data...
Loading historical data...
Loading historical data...
Loading historical data...

Documentation

Showing up to 5 results
|